Pasco, WA

3:51 AM PST on February 11, 2016 (GMT -0800)
Tri-Cities

Weather History for KPSC - August, 2013

Change the Weather History Date:

Monday, August 26, 2013

  Actual Average Record
Temperature  
Mean Temperature 72 °F 70 °F  
Max Temperature 84 °F 88 °F 97 °F (2005)
Min Temperature 60 °F 53 °F 46 °F (1993)
Degree Days  
Heating Degree Days 0 1  
Month to date heating degree days 0 1  
Since 1 June heating degree days 19 38  
Since 1 July heating degree days 0 6  
Cooling Degree Days 7 6  
Month to date cooling degree days 276 220  
Year to date cooling degree days 817 630  
Since 1 June cooling degree days 771 597  
Growing Degree Days 23 (Base 50)    
Moisture  
Dew Point 57 °F    
Average Humidity 61    
Maximum Humidity 84    
Minimum Humidity 37    
Precipitation  
Precipitation T in 0.01 in 0.14 in (1956)
Month to date precipitation 0.35 0.21  
Year to date precipitation 3.29 5.42  
Snow  
Snow 0.00 in - - ()
Snow Depth 0.00 in    
Sea Level Pressure  
Sea Level Pressure 29.89 in    
Wind  
Wind Speed 6 mph (ESE)    
Max Wind Speed 15 mph    
Max Gust Speed 17 mph    
Visibility 10 miles    
Events      
T = Trace of Precipitation, MM = Missing Value Source: NWS Daily Summary

Daily Weather History Graph

Daily Weather History Graph

Search for Another Location

Airport or City:

Trip Planner

Search our weather history database for the weather conditions in past years. The results will help you decide how hot, cold, wet, or windy it might be!

Date:

Astronomy

Aug. 26, 2013 Rise Set
Actual Time 6:09 AM PDT 7:45 PM PDT
Civil Twilight 5:38 AM PDT 8:17 PM PDT
Nautical Twilight 4:59 AM PDT 8:55 PM PDT
Astronomical Twilight 4:18 AM PDT 9:36 PM PDT
Moon 10:35 PM PDT (8/26) 12:39 PM PDT (8/26)
Length of Visible Light 14h 39m
Length of Day
13h 35m
Waning Gibbous, 65% of the Moon is Illuminated
Aug 26
Waning Gibbous
Aug 28
Last Quarter
Sep 5
New
Sep 12
First Quarter
Sep 19
Full

Hourly Weather History & Observations

Time (PDT) Temp. Heat Index Dew Point Humidity Pressure Visibility Wind Dir Wind Speed Gust Speed Precip Events Conditions
12:53 AM 64.0 °F - 57.0 °F 78% 29.87 in 10.0 mi SSW 8.1 mph - N/A   Clear
1:53 AM 63.0 °F - 57.0 °F 81% 29.89 in 10.0 mi SE 9.2 mph - N/A   Clear
2:53 AM 64.0 °F - 57.0 °F 78% 29.90 in 10.0 mi SE 4.6 mph - N/A   Clear
3:53 AM 64.0 °F - 57.9 °F 80% 29.91 in 10.0 mi South 6.9 mph - N/A   Clear
4:53 AM 63.0 °F - 57.9 °F 84% 29.92 in 10.0 mi South 8.1 mph - N/A   Clear
5:53 AM 63.0 °F - 57.9 °F 84% 29.92 in 10.0 mi SSE 5.8 mph - N/A   Clear
6:53 AM 62.1 °F - 57.9 °F 86% 29.94 in 10.0 mi ENE 3.5 mph - 0.00 in   Clear
7:53 AM 63.0 °F - 57.0 °F 81% 29.94 in 10.0 mi SE 8.1 mph - N/A   Clear
8:53 AM 68.0 °F - 57.0 °F 68% 29.94 in 10.0 mi SE 4.6 mph - N/A   Scattered Clouds
9:53 AM 70.0 °F - 57.0 °F 63% 29.93 in 10.0 mi Calm Calm - N/A   Clear
10:53 AM 72.0 °F - 57.9 °F 61% 29.92 in 10.0 mi East 3.5 mph - N/A   Scattered Clouds
11:53 AM 73.9 °F - 57.0 °F 55% 29.90 in 10.0 mi Calm Calm - N/A   Clear
12:53 PM 75.9 °F - 57.0 °F 52% 29.89 in 10.0 mi Calm Calm - N/A   Clear
1:53 PM 81.0 °F 81.1 °F 57.9 °F 45% 29.87 in 10.0 mi North 8.1 mph - N/A   Scattered Clouds
2:53 PM 77.0 °F - 60.1 °F 56% 29.86 in 10.0 mi North 6.9 mph - N/A   Clear
3:53 PM 82.0 °F 81.6 °F 55.9 °F 41% 29.85 in 10.0 mi Variable 4.6 mph - N/A   Clear
4:53 PM 84.0 °F 82.9 °F 55.0 °F 37% 29.84 in 10.0 mi North 4.6 mph - N/A   Partly Cloudy
5:53 PM 82.9 °F 82.1 °F 55.9 °F 39% 29.85 in 10.0 mi East 8.1 mph - N/A   Clear
6:53 PM 81.0 °F 80.7 °F 55.0 °F 41% 29.84 in 10.0 mi East 5.8 mph - N/A   Clear
7:53 PM 79.0 °F - 55.9 °F 45% 29.85 in 10.0 mi SE 6.9 mph - N/A   Clear
8:53 PM 75.9 °F - 57.9 °F 54% 29.87 in 10.0 mi SW 4.6 mph - N/A   Clear
9:53 PM 72.0 °F - 57.9 °F 61% 29.88 in 10.0 mi Calm Calm - N/A   Clear
10:53 PM 66.9 °F - 57.0 °F 70% 29.90 in 10.0 mi NNE 3.5 mph - N/A   Clear
11:53 PM 66.0 °F - 57.9 °F 75% 29.91 in 10.0 mi Calm Calm - N/A   Partly Cloudy